Flag for Germany Weather past 2 weeks in Munich, Bavaria, Germany

Now
82 °F

Sunny.


Feels Like: 81 °F
Forecast: 55 / 86 °F
Wind: 10 mph from Northeast

Location: Oberpfaffenhofen

Current Time: Aug 3, 2015 at 10:15:23 PM

Latest Report: Aug 3, 2015 at 6:50 PM


Visibility: 10 mi

Pressure: 30.07 "Hg (28.33 "Hg at 526m altitude)

Humidity: 32%

Dew point: 50 °F

Location of MunichLocation

Historic Weather in Munich — Graph

°F

Munich temperature yesterday

Maximum temperature yesterday: 72 °F (at 7:50 PM)
Minimum temperature yesterday: 70 °F (at 8:20 PM)
Average temperature yesterday: 71 °F

Past Weeks' High & Low Weather Summary

 TemperatureHumidityPressure
High93 °F (Jul 22, 1:50 PM)100% (Jul 20, 6:50 AM)30.12 "Hg (Jul 20, 6:50 AM)
Low46 °F (Jul 31, 6:50 AM)28% (Jul 22, 1:50 PM)29.77 "Hg (Jul 24, 6:50 PM)
Average71 °F57%29.97 "Hg
* Reported Jul 19 6:20 PM — Aug 3 6:50 PM, Munich, Weather by CustomWeather, © 2015

Note: Actual official high and low records may vary slightly from our data, if they occured in-between our weather recording intervals... More about our weather records

Advertising

Munich weather history for previous 24 hours

 ConditionsComfort  
Time TempWeatherWind HumidityBarometerVisibility
6:50 PM
Mon, Aug 3
82 °FSunny.10 mph32%30.07 "Hg10 mi
6:20 PM82 °FSunny.13 mph32%30.07 "Hg10 mi
5:50 PM82 °FSunny.12 mph32%30.07 "Hg10 mi
5:20 PM82 °FSunny.9 mph32%30.07 "Hg10 mi
4:50 PM82 °FSunny.5 mph32%30.07 "Hg10 mi
4:20 PM82 °FPassing clouds.7 mph32%30.09 "HgN/A
3:50 PM82 °FPassing clouds.6 mph32%30.09 "HgN/A
3:20 PM82 °FPassing clouds.8 mph32%30.09 "HgN/A
2:50 PM82 °FPassing clouds.8 mph35%30.09 "HgN/A
2:20 PM81 °FPassing clouds.10 mph34%30.09 "HgN/A
1:50 PM81 °FPassing clouds.7 mph37%30.09 "HgN/A
1:20 PM79 °FSunny.3 mph37%30.12 "Hg10 mi
12:50 PM79 °FSunny.3 mph37%30.12 "Hg10 mi
12:20 PM77 °FSunny.5 mph42%30.12 "Hg10 mi
11:20 AM75 °FSunny.3 mph39%30.12 "Hg10 mi
10:50 AM73 °FPassing clouds.5 mph44%30.12 "HgN/A
10:20 AM73 °FPassing clouds.7 mph47%30.12 "HgN/A
9:50 AM72 °FPassing clouds.5 mph47%30.12 "HgN/A
9:20 AM70 °FSunny.3 mph57%30.12 "Hg10 mi
8:50 AM66 °FSunny.2 mph68%30.12 "Hg10 mi
8:20 AM63 °FSunny.2 mph77%30.12 "Hg10 mi
7:50 AM61 °FSunny.No wind83%30.12 "Hg10 mi
7:20 AM55 °FSunny.2 mph94%30.12 "Hg10 mi
6:50 AM54 °FClear.3 mph94%30.12 "Hg10 mi
Weather by CustomWeather, © 2015

See weather overviewHow to use our weather pages